Location: Unspecified
(48.2082°N, 0.0000°E)
Time: 17:41:42
(UTC+00:00)

Tiros 1 despin weight - All Passes

Search period start: 20 June 2019 00:00
Search period end: 30 June 2019 00:00
Orbit: 595 x 642 km, 48.2° (Epoch: 19 June)

Date Brightness Start Highest point End Pass type
(mag) Time Alt. Az. Time Alt. Az. Time Alt. Az.
20 Jun - 00:53:39 10° SW 00:57:59 54° SSE 01:02:18 10° E visible
20 Jun - 02:35:01 10° W 02:39:26 89° NNW 02:43:53 10° E visible
20 Jun - 04:16:35 10° W 04:20:58 67° SSW 04:25:23 10° ESE daylight
20 Jun - 05:58:30 10° W 06:02:03 24° SW 06:05:38 10° SSE daylight
20 Jun - 23:29:35 10° SSW 23:33:23 28° SSE 23:37:10 10° E visible
21 Jun - 01:10:07 10° WSW 01:14:33 73° SSE 01:18:57 10° E visible
21 Jun - 02:51:40 10° W 02:56:06 89° S 03:00:33 10° E visible
21 Jun - 04:33:16 10° W 04:37:31 48° SSW 04:41:47 10° SE daylight
21 Jun - 06:15:59 10° WSW 06:18:20 14° SW 06:20:41 10° S daylight
21 Jun - 22:07:13 10° SSE 22:09:03 12° SE 22:10:53 10° ESE visible
21 Jun - 23:45:35 10° SW 23:49:48 43° SSE 23:54:00 10° E visible
22 Jun - 01:26:43 10° W 01:31:10 87° S 01:35:36 10° E visible
22 Jun - 03:08:19 10° W 03:12:44 77° SSW 03:17:10 10° ESE visible
22 Jun - 04:50:02 10° W 04:53:57 31° SSW 04:57:52 10° SSE daylight
22 Jun - 22:21:54 10° SSW 22:25:18 21° SE 22:28:40 10° E visible
23 Jun - 00:01:55 10° WSW 00:06:19 63° SSE 00:10:41 10° E visible
23 Jun - 01:43:23 10° W 01:47:50 89° N 01:52:16 10° E visible
23 Jun - 03:24:58 10° W 03:29:20 59° SSW 03:33:40 10° ESE daylight
23 Jun - 05:07:08 10° W 05:10:17 19° SW 05:13:27 10° S daylight
23 Jun - 22:37:36 10° SW 22:41:39 34° SSE 22:45:40 10° E visible
24 Jun - 00:18:27 10° WSW 00:22:55 80° SSE 00:27:21 10° E visible
24 Jun - 02:00:03 10° W 02:04:29 85° S 02:08:55 10° E visible
24 Jun - 03:41:41 10° W 03:45:49 40° SSW 03:49:58 10° SE daylight
24 Jun - 05:25:25 10° WSW 05:26:30 11° SW 05:27:35 10° SSW daylight
24 Jun - 21:14:30 10° S 21:17:14 16° SE 21:19:57 10° E visible
24 Jun - 22:53:47 10° SW 22:58:07 51° SSE 23:02:25 10° E visible
25 Jun - 00:35:06 10° W 00:39:33 90° NW 00:44:00 10° E visible
25 Jun - 02:16:42 10° W 02:21:07 70° SSW 02:25:30 10° ESE visible
25 Jun - 03:58:34 10° W 04:02:13 26° SW 04:05:52 10° SSE daylight
25 Jun - 21:29:46 10° SSW 21:33:32 26° SE 21:37:16 10° E visible
25 Jun - 23:10:13 10° WSW 23:14:40 71° SSE 23:19:05 10° E visible
26 Jun - 00:51:46 10° W 00:56:13 90° W 01:00:39 10° E visible
26 Jun - 02:33:22 10° W 02:37:39 50° SSW 02:41:56 10° SE visible
26 Jun - 04:15:54 10° WSW 04:18:30 15° SW 04:21:05 10° S daylight
26 Jun - 20:07:45 10° SSE 20:09:13 11° SE 20:10:41 10° ESE daylight
26 Jun - 21:45:43 10° SW 21:49:56 41° SSE 21:54:07 10° E visible
26 Jun - 23:26:49 10° W 23:31:17 86° S 23:35:44 10° E visible
27 Jun - 01:08:25 10° W 01:12:52 80° SSW 01:17:17 10° ESE visible
27 Jun - 02:50:08 10° W 02:54:06 33° SSW 02:58:05 10° SSE visible
27 Jun - 20:22:08 10° S 20:25:26 20° SE 20:28:44 10° E daylight
27 Jun - 22:02:01 10° WSW 22:06:26 60° SSE 22:10:49 10° E visible
27 Jun - 23:43:28 10° W 23:47:57 89° N 23:52:23 10° E visible
28 Jun - 01:25:04 10° W 01:29:27 62° SSW 01:33:49 10° ESE visible
28 Jun - 03:07:09 10° W 03:10:27 21° SW 03:13:45 10° S visible
28 Jun - 20:37:45 10° SSW 20:41:47 32° SSE 20:45:47 10° E visible
28 Jun - 22:18:32 10° WSW 22:23:02 78° SSE 22:27:29 10° E visible
29 Jun - 00:00:08 10° W 00:04:36 87° SSW 00:09:02 10° E visible
29 Jun - 01:41:46 10° W 01:45:58 43° SSW 01:50:09 10° SE visible
29 Jun - 03:25:03 10° WSW 03:26:41 12° SW 03:28:19 10° SSW daylight
29 Jun - 19:14:50 10° S 19:17:23 15° SE 19:19:56 10° ESE daylight
29 Jun - 20:53:53 10° SW 20:58:14 49° SSE 21:02:33 10° E visible
29 Jun - 22:35:10 10° W 22:39:40 89° SSE 22:44:07 10° E visible
